Home > Weather > Durban > Past weeks

Flag for South Africa Weather for the Past 2 Weeks in Durban, South Africa

Now
70 °F

Passing clouds.


Feels Like: 70 °F
Forecast: 65 / 82 °F
Wind: 1 mph from North

Location: King Shaka International Airport

Current Time: Feb 10, 2016 at 11:05:56 PM

Latest Report: Feb 10, 2016 at 10:00 PM


Visibility: N/A

Pressure: 29.92 "Hg

Humidity: 88%

Dew point: 66 °F

Location of DurbanLocation

Historic Weather in Durban — Graph

°F

Durban Temperature Yesterday

Maximum temperature yesterday: 81 °F (at 10:00 AM)
Minimum temperature yesterday: 64 °F (at 3:00 AM)
Average temperature yesterday: 74 °F

High & Low Weather Summary for the Past Weeks

 TemperatureHumidityPressure
High86 °F (Jan 27, 1:00 PM)94% (Jan 27, 4:00 AM)30.15 "Hg (Jan 27, 4:00 AM)
Low64 °F (Feb 5, 5:00 AM)42% (Feb 5, 10:00 AM)29.71 "Hg (Feb 2, 3:00 PM)
Average76 °F74%29.98 "Hg
* Reported Jan 26 10:00 PM — Feb 10 10:00 PM, Durban, Weather by CustomWeather, © 2016

Note: Actual official high and low records may vary slightly from our data, if they occured in-between our weather recording intervals... More about our weather records

Advertising

Durban Weather History for the Previous 24 Hours

 ConditionsComfort  
Time TempWeatherWind HumidityBarometerVisibility
10:00 PM
Wed, Feb 10
70 °FPassing clouds.1 mph88%29.92 "HgN/A
9:00 PM70 °FPassing clouds.2 mph88%29.92 "HgN/A
8:00 PM72 °FPassing clouds.1 mph88%29.92 "HgN/A
7:00 PM75 °FPassing clouds.2 mph78%29.92 "HgN/A
6:00 PM77 °FPassing clouds.6 mph74%29.89 "HgN/A
5:00 PM81 °FPartly sunny.7 mph66%29.89 "HgN/A
4:00 PM81 °FScattered clouds.8 mph66%29.89 "HgN/A
3:00 PM81 °FScattered clouds.10 mph62%29.89 "HgN/A
2:00 PM81 °FPassing clouds.8 mph66%29.92 "HgN/A
1:00 PM79 °FPassing clouds.12 mph70%29.92 "HgN/A
12:00 PM81 °FPassing clouds.12 mph66%29.92 "HgN/A
11:00 AM79 °FPassing clouds.12 mph65%29.95 "HgN/A
10:00 AM81 °FPassing clouds.8 mph62%29.95 "HgN/A
9:00 AM79 °FScattered clouds.7 mph61%29.98 "HgN/A
8:00 AM77 °FPassing clouds.7 mph65%29.98 "HgN/A
7:00 AM75 °FPassing clouds.3 mph69%29.98 "HgN/A
6:00 AM70 °FPassing clouds.3 mph83%29.98 "HgN/A
5:00 AM70 °FPartly sunny.3 mph83%29.98 "HgN/A
4:00 AM68 °FPassing clouds.2 mph83%29.98 "HgN/A
3:00 AM68 °FClear.3 mph88%29.98 "Hg10 mi
2:00 AM70 °FClear.2 mph83%29.98 "Hg10 mi
1:00 AM70 °FClear.3 mph88%30.01 "Hg10 mi
12:00 AM70 °FPassing clouds.3 mph88%30.01 "HgN/A
11:00 PM
Tue, Feb 9
70 °FClear.3 mph88%30.04 "Hg10 mi
Weather by CustomWeather, © 2016

See weather overviewHow to use our weather pages